Location: Recife
(8.0585°S, 34.8848°W)
Time: 12:53:15
(UTC-03:00)

Vanguard 2 - Pass Details

Date: 22 April 2026
Orbit: 553 x 2895 km, 32.9° (Epoch: 13 May)

Event Time Altitude Azimuth Distance (km) Brightness Sun altitude
Exits shadow 01:11:49 29° 133° (SE) 3,964 11.1 -61.7°
Drops below altitude 10° 01:19:21 10° 104° (ESE) 4,848 11.9 -59.9°
Sets 01:23:12 0° 95° (E) 5,548 12.4 -59.0°
